Location: Tr�vern
(48.0333°N, 4.6000°W)
Time: 18:44:08
(UTC+00:00)

Cosmos 921 Rocket - Pass Details

Date: 14 July 2020
Orbit: 572 x 631 km, 75.8° (Epoch: 12 August)

Event Time Altitude Azimuth Distance (km) Brightness Sun altitude
Rises 03:43:44 0° 327° (NNW) 2,896 6.7 -7.3°
Reaches altitude 10° 03:46:27 10° 311° (NW) 1,974 5.6 -7.0°
Maximum altitude 03:49:41 20° 264° (W) 1,400 4.4 -6.6°
Drops below altitude 10° 03:52:51 10° 216° (SW) 1,934 5.0 -6.2°
Enters shadow 03:53:53 - 208° (SSW) 2,257 5.3 -6.1°
